Welcome to the New NWS' Forecast!
Most changes are behind the scenes, but click here for differences you might notice.

Regional Weather Roundup (RWR)

Issued by Gray - Portland, ME (GYX)

                            
000
ASUS41 KGYX 170605
RWRGYX
WEATHER ROUNDUP FOR MAINE AND NEW HAMPSHIRE
NATIONAL WEATHER SERVICE GRAY ME
200 AM EDT WED OCT 17 2018

MEZ002-005-006-010-012-015-018-020-021-024-026-027-029-170700-
MAINE
  
CITY           SKY/WX    TMP DP  RH WIND       PRES   REMARKS
PORTLAND       FAIR      40  34  79 CALM      29.95                   
6HR MIN TEMP:  39; 6HR MAX TEMP:  45;                                

SANFORD        FAIR      30  29  96 CALM      29.96                   
BAR HARBOR     FAIR      40  33  76 SW3       29.94                   
WISCASSET      FAIR      36  35  96 CALM      29.95                   
6HR MIN TEMP:  34; 6HR MAX TEMP:  39;                                

ROCKLAND       FAIR      36  35  96 CALM      29.94                   
FRYEBURG       FAIR      31  30  96 CALM      29.93                   
6HR MIN TEMP:  29; 6HR MAX TEMP:  34;                                

LEWISTONAUBURN FAIR      32  30  92 CALM      29.93                   
AUGUSTA        FAIR      36  33  89 S3        29.93                   
6HR MIN TEMP:  35; 6HR MAX TEMP:  43;                                

WATERVILLE     FAIR      33  31  92 SW3       29.89                   
BANGOR         FAIR      37  30  75 SW5       29.92                   
6HR MIN TEMP:  33; 6HR MAX TEMP:  43;                                

GREENVILLE       N/A     34  28  79 CALM      29.82F                  
6HR MIN TEMP:  34; 6HR MAX TEMP:  37;                                

MILLINOCKET    FAIR      31  27  85 CALM      29.88                   
6HR MIN TEMP:  31; 6HR MAX TEMP:  42;                                

HOULTON        NOT AVBL                                               
PRESQUE ISLE   MOCLDY    32  26  78 SW5       29.83                   
6HR MIN TEMP:  31; 6HR MAX TEMP:  40;                                

FRENCHVILLE    CLOUDY    35  25  66 SW9       29.76                   
6HR MIN TEMP:  34; 6HR MAX TEMP:  39;                                

CARIBOU        CLOUDY    33  26  75 SW7       29.80                   
6HR MIN TEMP:  31; 6HR MAX TEMP:  40;                                

$$

NHZ002-005-008-009-011-012-014-170700-
NEW HAMPSHIRE
  
CITY           SKY/WX    TMP DP  RH WIND       PRES   REMARKS
ROCHESTER      FAIR      36  34  92 CALM      29.95                   
6HR MIN TEMP:  36; 6HR MAX TEMP:  46;                                

NASHUA         FAIR      36  36 100 CALM      29.98                   
MANCHESTER     MOCLDY    39  35  86 S3        29.95                   
6HR MIN TEMP:  39; 6HR MAX TEMP:  49;                                

CONCORD        FAIR      31  29  92 CALM      29.96                   
6HR MIN TEMP:  31; 6HR MAX TEMP:  43;                                

LACONIA        FAIR      40  32  73 SW3       29.94                   
PLYMOUTH       FAIR      29  29  99 CALM      29.94F                  
BERLIN         FAIR      28  26  92 CALM      29.88                   
6HR MIN TEMP:  27; 6HR MAX TEMP:  33;                                

WHITEFIELD     MOCLDY    29  27  92 CALM      29.89                   
6HR MIN TEMP:  28; 6HR MAX TEMP:  34;                                

JAFFREY        FAIR      32  32 100 CALM      29.96                   
6HR MIN TEMP:  32; 6HR MAX TEMP:  40;                                

KEENE          FAIR      31  31 100 CALM      29.97                   
LEBANON        FAIR      40  32  73 S5        29.92                   
6HR MIN TEMP:  37; 6HR MAX TEMP:  45;                                

MT WASHINGTON  FOG       21  21 100 W46         N/A  VSB 0   WCI   0  
6HR MIN TEMP:  19; 6HR MAX TEMP:  21;                                

$$

VTZ005-007-008-170700-
VERMONT
  
CITY           SKY/WX    TMP DP  RH WIND       PRES   REMARKS
ST JOHNSBURY     N/A     32  32 100 MISG      29.88F                  
MONTPELIER     FAIR      40  33  76 CALM      29.91                   
BURLINGTON     CLOUDY    47  33  58 S13       29.87                   
$$

MAZ007-012-024-CTZ003-RIZ002-NYZ038-NYZ072-170700-
SOUTHERN NEW ENGLAND AND NY
  
CITY           SKY/WX    TMP DP  RH WIND       PRES   REMARKS
BOSTON         FAIR      47  37  68 SW10      29.99F                  
WORCESTER      FAIR      39  34  82 W9        29.97                   
NANTUCKET      FAIR      51  38  60 W6        30.02                   
PROVIDENCE     FAIR      43  36  76 W5        30.01                   
HARTFORD       FAIR      41  36  82 S7        30.00                   
ALBANY         FAIR      42  36  79 S7        29.97                   
NEW YORK CITY  MOCLDY    53  35  50 SW10      30.04F                  
$$

ANZ081-ANZ082-ANZ150-NHZ014-MEZ023>029-170700-
COASTAL MARINE OBSERVATIONS
  
STATION/POSITION TIME  TEMP    WIND        PRES    WAVE
                       AIR SEA DIR/SP/G            HT/PER
                 (UTC) (F)     (DEG/KT/KT) (MB)    (FT/S)
MOUNT DESERT ROC 0600   48     220/  4/  4 1013.9F
MATINICUS ROCK   0500   47     150/  2/  3 1014.2F
ISLE OF SHOALS   0500   49     250/ 14/ 15 1014.5F
JEFFREYS LEDGE   0536      57                N/A     3/ 4
$$

.............KEY..............
   WCI - WIND CHILL
   TC  - TEMPERATURE IN CELSIUS
   VSB - VISIBILITY IN MILES
   HX  - HEAT INDEX
   FAIR- INDICATES FEW OR NO CLOUDS BELOW 12,000 FT, WITH NO 
         SIGNIFICANT WEATHER AND/OR OBSTRUCTIONS TO VISIBILITY.